Home > Weather > Orkanger/Fannrem > Past weeks

Flag for Norway Past Weather in Orkanger/Fannrem, Norway — Yesterday and Last 2 Weeks

Now
48 °F

Cool.


Feels Like: 48 °F
Forecast: 47 / 57 °F
Wind: 1 mph from West

Location: Marstein

Current Time: Aug 30, 2016 at 12:01:12 AM

Latest Report: Aug 29, 2016 at 11:00 PM


Visibility: N/A

Pressure: 29.89 "Hg

Humidity: 93%

Dew Point: 46 °F

Location of Orkanger/FannremLocation

Past Weather in Orkanger/Fannrem — Graph

°F

Orkanger/Fannrem Temperature Yesterday

Maximum temperature yesterday: 58 °F (at 2:00 PM)
Minimum temperature yesterday: 48 °F (at 10:00 PM)
Average temperature yesterday: 53 °F

High & Low Weather Summary for the Past Weeks

 TemperatureHumidityPressure
High73 °F (Aug 18, 1:00 PM)94% (Aug 23, 7:00 AM)30.29 "Hg (Aug 23, 7:00 AM)
Low48 °F (Aug 29, 10:00 PM)38% (Aug 18, 1:00 PM)29.44 "Hg (Aug 26, 3:00 PM)
Average57 °F83%30.01 "Hg
* Reported Aug 14 10:00 PM — Aug 29 10:00 PM, Orkanger/Fannrem, Weather by CustomWeather, © 2016

Note: Actual official high and low records may vary slightly from our data, if they occured in-between our weather recording intervals... More about our weather records

Advertising

Orkanger/Fannrem Weather History for the Previous 24 Hours

Scroll right to see more
 ConditionsComfort  
Time TempWeatherWind HumidityBarometerVisibility
10:00 PM
Mon, Aug 29
48 °FCool.1 mph92%29.90 "HgN/A
9:00 PM49 °FCool.1 mph91%29.90 "HgN/A
8:00 PM52 °FCool.1 mph89%29.90 "HgN/A
7:00 PM53 °FCool.1 mph88%29.90 "HgN/A
6:00 PM54 °FCool.1 mph86%29.90 "HgN/A
5:00 PM54 °FCool.2 mph84%29.90 "HgN/A
4:00 PM55 °FCool.1 mph82%29.88 "HgN/A
3:00 PM58 °FCool.2 mph69%29.87 "HgN/A
2:00 PM58 °FCool.1 mph75%29.87 "HgN/A
1:00 PM57 °FCool.1 mph82%29.87 "HgN/A
12:00 PM57 °FCool.1 mph79%29.87 "HgN/A
11:00 AM55 °FCool.1 mph85%29.88 "HgN/A
10:00 AM54 °FCool.No wind89%29.88 "HgN/A
9:00 AM53 °FCool.No wind92%29.88 "HgN/A
8:00 AM51 °FCool.1 mph93%29.87 "HgN/A
7:00 AM51 °FCool.1 mph92%29.87 "HgN/A
6:00 AM51 °FCool.No wind91%29.88 "HgN/A
5:00 AM51 °FCool.1 mph90%29.88 "HgN/A
4:00 AM52 °FCool.1 mph89%29.89 "HgN/A
3:00 AM53 °FCool.3 mph89%29.90 "HgN/A
2:00 AM53 °FCool.2 mph91%29.91 "HgN/A
1:00 AM52 °FCool.2 mph92%29.92 "HgN/A
12:00 AM52 °FCool.1 mph93%29.92 "HgN/A
Weather by CustomWeather, © 2016

See weather overviewHow to use our weather pages